Meteo Giornale » Osservazioni meteo Italia » Lamezia Terme

ore: 04:50 - Osservazioni Meteo Lamezia Terme
Lat. 38° 54' N Lon. 16° 15' E Alt. 15 metri s.l.m.

molto_nuvoloso Europe/Rome

11 °C

Molto Nuvoloso

Temp. 24 Ore

9 °C

19 °C

Est/Nord-Est

9.3 Km/h

Dew point 10 °C

Umidità 93 %

Visibilità  10 Km

Il sole sorge alle ore 06:41

Il sole tramonta alle ore 16:39

Data e Ora Cielo e Fenomeni T °C DP °C Um. % Pres. hPa Vis. km Vento km/h
Oggi h: 04:50 molto_nuvoloso Molto Nuvoloso 11 10 93 1013 10 E/NE 9.3
Oggi h: 02:50 coperto_pioggia Pioggia Debole 12 11 93 1014 10 E/NE 7.4
Oggi h: 01:50 coperto_pioggia Pioviggine Leggera 12 11 93 1014 10 N 5.5
Oggi h: 00:50 molto_nuvoloso Molto Nuvoloso 10 9 93 1014 10 E/SE 7.4
Ieri h: 23:50 nuvoloso Nuvoloso 10 8 87 1014 10 N 5.5
Ieri h: 22:50 poco_nuvoloso Poco Nuvoloso 9 8 93 1014 10 E 7.4
Ieri h: 21:50 poco_nuvoloso Poco Nuvoloso 9 8 93 1014 10 E 7.4
Ieri h: 20:50 poco_nuvoloso Poco Nuvoloso 10 8 87 1013 10 N 5.5
Ieri h: 19:50 poco_nuvoloso Poco Nuvoloso 14 10 76 1013 10 N 3.7
Ieri h: 18:50 poco_nuvoloso Poco Nuvoloso 14 10 76 1013 10 O 11.1
Ieri h: 17:50 poco_nuvoloso Poco Nuvoloso 14 10 76 1013 10 O/NO 11.1
Ieri h: 16:50 nuvoloso Nuvoloso 16 11 72 1012 10 O 14.8
Ieri h: 15:50 nuvoloso Nuvoloso 17 11 67 1012 10 O/NO 20.3
Ieri h: 14:50 nuvoloso Nuvoloso 18 11 63 1012 10 O 29.6
Ieri h: 13:50 poco_nuvoloso Poco Nuvoloso 18 11 63 1012 10 O 29.6
Ieri h: 12:50 poco_nuvoloso Poco Nuvoloso 19 10 55 1012 10 O/NO 25.9
Ieri h: 11:50 poco_nuvoloso Poco Nuvoloso 19 10 55 1012 10 O 24
Ieri h: 10:50 poco_nuvoloso Poco Nuvoloso 18 10 59 1013 10 O 16.7
Ieri h: 09:50 molto_nuvoloso Molto Nuvoloso 18 11 63 1013 10 O 13
Ieri h: 08:50 nuvoloso Nuvoloso 15 12 82 1012 10 N 5.5
Ieri h: 07:50 nuvoloso Nuvoloso 12 10 87 1012 10 N 3.7
Ieri h: 06:50 nuvoloso Nuvoloso 10 12 0 1012 10 N 3.7